AAL1570 KDFW-KLGA

Flight info

Callsign AAL1570
Flight time N/A
Altitude 35000
Route ZACHH4 BSKAT DCT LIT J131 PXV DCT ROD DCT KLYNE Q29 WWSHR DCT TEESY Q186 WEVEL DCT ETG MIP4
Aircraft A321/M-SDE3FGHIRWY/LB1

Departure

Time 2026-05-01 13:43
Airport Dallas Fort Worth International Airport (KDFW)

Arrival

Time N/A
Airport LaGuardia Airport (KLGA)
Time Latitude Longitude Altitude Speed Heading
2026-05-01 12:42 32.90186 -97.04292 596 ft 0 kts
2026-05-01 13:25 32.90183 -97.04293 596 ft 3 kts
2026-05-01 13:25 32.90158 -97.04297 596 ft 2 kts
2026-05-01 13:25 32.90138 -97.04299 596 ft 4 kts 22°
2026-05-01 13:25 32.90118 -97.04310 596 ft 4 kts 27°
2026-05-01 13:26 32.90111 -97.04315 597 ft 0 kts 27°
2026-05-01 13:31 32.90134 -97.04321 596 ft 5 kts 327°
2026-05-01 13:31 32.90134 -97.04508 596 ft 13 kts 270°
2026-05-01 13:32 32.90135 -97.04671 597 ft 0 kts 271°
2026-05-01 13:33 32.90131 -97.04753 597 ft 6 kts 244°
2026-05-01 13:34 32.90029 -97.04764 599 ft 13 kts 180°
2026-05-01 13:34 32.89788 -97.04763 597 ft 19 kts 180°
2026-05-01 13:35 32.89521 -97.04764 597 ft 19 kts 180°
2026-05-01 13:35 32.89384 -97.04766 595 ft 20 kts 180°
2026-05-01 13:35 32.89092 -97.04767 592 ft 22 kts 180°
2026-05-01 13:36 32.88947 -97.04769 590 ft 20 kts 181°
2026-05-01 13:36 32.88811 -97.04768 591 ft 19 kts 180°
2026-05-01 13:36 32.88584 -97.04768 587 ft 15 kts 180°
2026-05-01 13:37 32.88507 -97.04747 587 ft 10 kts 128°
2026-05-01 13:37 32.88504 -97.04659 587 ft 12 kts 90°
2026-05-01 13:37 32.88503 -97.04536 589 ft 17 kts 90°
2026-05-01 13:37 32.88502 -97.04388 595 ft 17 kts 90°
2026-05-01 13:38 32.88502 -97.04153 601 ft 15 kts 90°
2026-05-01 13:38 32.88501 -97.04030 601 ft 15 kts 90°
2026-05-01 13:38 32.88501 -97.03887 596 ft 19 kts 90°
2026-05-01 13:39 32.88500 -97.03711 587 ft 24 kts 90°
2026-05-01 13:39 32.88499 -97.03528 580 ft 18 kts 90°
2026-05-01 13:39 32.88497 -97.03399 577 ft 11 kts 102°
2026-05-01 13:39 32.88425 -97.03375 579 ft 13 kts 180°
2026-05-01 13:40 32.88334 -97.03376 580 ft 13 kts 180°
2026-05-01 13:40 32.88240 -97.03376 576 ft 14 kts 180°
2026-05-01 13:40 32.88141 -97.03377 576 ft 15 kts 180°
2026-05-01 13:40 32.88035 -97.03377 578 ft 16 kts 180°
2026-05-01 13:41 32.87939 -97.03378 576 ft 12 kts 180°
2026-05-01 13:41 32.87906 -97.03321 581 ft 9 kts 89°
2026-05-01 13:41 32.87905 -97.03248 577 ft 9 kts 91°
2026-05-01 13:41 32.87904 -97.03166 581 ft 11 kts 91°
2026-05-01 13:42 32.87903 -97.03070 579 ft 13 kts 90°
2026-05-01 13:42 32.87910 -97.03007 574 ft 5 kts 50°
2026-05-01 13:42 32.87944 -97.03005 572 ft 7 kts 358°
2026-05-01 13:42 32.88067 -97.03008 576 ft 44 kts 360°
2026-05-01 13:43 32.88609 -97.03003 574 ft 109 kts
2026-05-01 13:43 32.89561 -97.02998 576 ft 161 kts
2026-05-01 13:43 32.90794 -97.03004 842 ft 180 kts
2026-05-01 13:43 32.92023 -97.02997 1618 ft 174 kts
2026-05-01 13:44 32.93217 -97.02982 2363 ft 170 kts
2026-05-01 13:44 32.94449 -97.02951 2726 ft 184 kts
2026-05-01 13:44 32.95805 -97.02886 2919 ft 205 kts
2026-05-01 13:44 32.97301 -97.02803 3115 ft 226 kts
2026-05-01 13:45 32.98940 -97.02709 3406 ft 245 kts
2026-05-01 13:45 33.00685 -97.02644 3989 ft 253 kts
2026-05-01 13:45 33.02241 -97.02612 4620 ft 257 kts
2026-05-01 13:45 33.04062 -97.02576 5341 ft 260 kts
2026-05-01 13:46 33.05806 -97.02118 5999 ft 256 kts 30°
2026-05-01 13:46 33.07170 -97.00833 6639 ft 255 kts 54°
2026-05-01 13:46 33.07949 -96.98937 7241 ft 259 kts 77°
2026-05-01 13:46 33.08137 -96.96778 7813 ft 266 kts 85°
2026-05-01 13:47 33.08261 -96.94547 8405 ft 272 kts 86°
2026-05-01 13:47 33.08129 -96.92268 8997 ft 279 kts 99°
2026-05-01 13:47 33.07795 -96.89962 9583 ft 286 kts 98°
2026-05-01 13:47 33.07464 -96.87593 10124 ft 293 kts 98°
2026-05-01 13:48 33.07120 -96.85105 10314 ft 315 kts 98°
2026-05-01 13:48 33.06750 -96.82436 10457 ft 337 kts 98°
2026-05-01 13:48 33.06357 -96.79595 10591 ft 356 kts 99°
2026-05-01 13:48 33.05944 -96.76633 10979 ft 366 kts 99°
2026-05-01 13:49 33.05666 -96.74642 11307 ft 370 kts 99°
2026-05-01 13:49 33.05238 -96.71583 11815 ft 376 kts 99°
2026-05-01 13:49 33.04801 -96.68479 12312 ft 382 kts 99°
2026-05-01 13:49 33.04358 -96.65333 12803 ft 388 kts 99°
2026-05-01 13:50 33.03909 -96.62135 13320 ft 394 kts 99°
2026-05-01 13:50 33.03456 -96.58892 13817 ft 400 kts 99°
2026-05-01 13:50 33.02992 -96.55588 14262 ft 406 kts 99°
2026-05-01 13:50 33.02521 -96.52253 14727 ft 411 kts 100°
2026-05-01 13:51 33.02040 -96.48867 15179 ft 416 kts 100°
2026-05-01 13:51 33.01551 -96.45445 15663 ft 421 kts 100°
2026-05-01 13:51 33.01055 -96.41985 16115 ft 427 kts 100°
2026-05-01 13:51 33.00576 -96.38469 16566 ft 432 kts 97°
2026-05-01 13:52 33.00465 -96.34865 17013 ft 438 kts 86°
2026-05-01 13:52 33.00870 -96.31252 17454 ft 442 kts 76°
2026-05-01 13:52 33.01784 -96.27745 17887 ft 445 kts 65°
2026-05-01 13:52 33.03004 -96.24328 18326 ft 450 kts 64°
2026-05-01 13:53 33.04239 -96.20867 18711 ft 455 kts 64°
2026-05-01 13:53 33.06727 -96.13850 19547 ft 464 kts 65°
2026-05-01 13:53 33.07984 -96.10291 19942 ft 468 kts 65°
2026-05-01 13:54 33.09251 -96.06689 20313 ft 473 kts 65°
2026-05-01 13:54 33.10527 -96.03056 20665 ft 478 kts 65°
2026-05-01 13:54 33.11820 -95.99380 21029 ft 482 kts 65°
2026-05-01 13:54 33.13122 -95.95674 21390 ft 486 kts 65°
2026-05-01 13:55 33.14433 -95.91940 21732 ft 490 kts 65°
2026-05-01 13:55 33.15735 -95.88229 22071 ft 493 kts 65°
2026-05-01 13:55 33.17081 -95.84383 22419 ft 497 kts 65°
2026-05-01 13:55 33.18416 -95.80567 22754 ft 500 kts 65°
2026-05-01 13:56 33.19761 -95.76712 23087 ft 504 kts 65°
2026-05-01 13:56 33.21098 -95.72879 23406 ft 508 kts 65°
2026-05-01 13:56 33.22458 -95.68969 23720 ft 511 kts 65°
2026-05-01 13:56 33.23823 -95.65036 23993 ft 514 kts 66°
2026-05-01 13:57 33.25198 -95.61075 24346 ft 517 kts 66°
2026-05-01 13:57 33.26583 -95.57085 24630 ft 520 kts 66°
2026-05-01 13:57 33.27972 -95.53078 24912 ft 522 kts 67°
2026-05-01 13:57 33.29362 -95.49056 25179 ft 525 kts 67°
2026-05-01 13:58 33.30755 -95.45015 25466 ft 527 kts 68°
2026-05-01 13:58 33.32155 -95.40945 25746 ft 530 kts 68°
2026-05-01 13:58 33.33561 -95.36854 26017 ft 532 kts 68°
2026-05-01 13:58 33.34974 -95.32751 26278 ft 535 kts 68°
2026-05-01 13:59 33.36394 -95.28623 26469 ft 539 kts 68°
2026-05-01 13:59 33.37825 -95.24452 26689 ft 543 kts 68°
2026-05-01 13:59 33.39261 -95.20262 26939 ft 546 kts 69°
2026-05-01 13:59 33.40703 -95.16048 27187 ft 548 kts 69°
2026-05-01 14:00 33.42146 -95.11820 27430 ft 550 kts 69°
2026-05-01 14:00 33.43600 -95.07555 27681 ft 553 kts 69°
2026-05-01 14:00 33.45055 -95.03287 27926 ft 555 kts 70°
2026-05-01 14:00 33.46517 -94.99000 28172 ft 557 kts 70°
2026-05-01 14:01 33.47983 -94.94693 28455 ft 559 kts 69°
2026-05-01 14:01 33.49455 -94.90360 28681 ft 563 kts 69°
2026-05-01 14:01 33.50929 -94.86005 28911 ft 565 kts 69°
2026-05-01 14:01 33.52410 -94.81619 29154 ft 568 kts 69°
2026-05-01 14:02 33.53897 -94.77219 29440 ft 570 kts 69°
2026-05-01 14:02 33.55383 -94.72819 29779 ft 570 kts 70°
2026-05-01 14:02 33.56869 -94.68404 30095 ft 570 kts 70°
2026-05-01 14:02 33.58350 -94.63987 30376 ft 571 kts 70°
2026-05-01 14:03 33.59833 -94.59560 30679 ft 571 kts 70°
2026-05-01 14:03 33.61309 -94.55155 30995 ft 571 kts 70°
2026-05-01 14:03 33.62797 -94.50714 31190 ft 574 kts 70°
2026-05-01 14:03 33.64290 -94.46265 31447 ft 574 kts 70°
2026-05-01 14:04 33.65778 -94.41823 31740 ft 574 kts 71°
2026-05-01 14:04 33.67264 -94.37381 32053 ft 573 kts 71°
2026-05-01 14:04 33.68746 -94.32936 32376 ft 572 kts 71°
2026-05-01 14:04 33.69722 -94.30005 32582 ft 571 kts 71°
2026-05-01 14:05 33.71822 -94.24132 32990 ft 572 kts 65°
2026-05-01 14:05 33.73774 -94.19957 33282 ft 573 kts 62°
2026-05-01 14:05 33.75764 -94.15819 33544 ft 573 kts 61°
2026-05-01 14:05 33.77762 -94.11668 33806 ft 573 kts 62°
2026-05-01 14:06 33.79757 -94.07507 34064 ft 573 kts 62°
2026-05-01 14:06 33.81744 -94.03346 34292 ft 573 kts 62°
2026-05-01 14:06 33.83730 -93.99182 34519 ft 573 kts 62°
2026-05-01 14:06 33.85682 -93.95081 34760 ft 572 kts 62°
2026-05-01 14:07 33.87661 -93.90917 34986 ft 572 kts 62°
2026-05-01 14:07 33.89638 -93.86754 35119 ft 572 kts 62°
2026-05-01 14:08 33.95603 -93.74189 35106 ft 577 kts 61°
2026-05-01 14:08 33.99581 -93.65771 35099 ft 577 kts 61°
2026-05-01 14:09 34.03551 -93.57352 35108 ft 577 kts 61°
2026-05-01 14:09 34.07731 -93.49085 35112 ft 577 kts 56°
2026-05-01 14:10 34.12292 -93.41095 35122 ft 577 kts 54°
2026-05-01 14:10 34.16902 -93.33155 35124 ft 578 kts 55°
2026-05-01 14:11 34.21404 -93.25084 35122 ft 580 kts 56°
2026-05-01 14:11 34.28054 -93.12835 35113 ft 582 kts 56°
2026-05-01 14:12 34.32501 -93.04712 35113 ft 583 kts 55°
2026-05-01 14:12 34.37026 -92.96493 35124 ft 583 kts 55°
2026-05-01 14:13 34.40758 -92.89693 35137 ft 583 kts 55°
2026-05-01 14:13 34.45964 -92.80147 35135 ft 584 kts 55°
2026-05-01 14:14 34.50432 -92.71912 35122 ft 584 kts 55°
2026-05-01 14:14 34.54904 -92.63679 35116 ft 585 kts 54°
2026-05-01 14:15 34.59388 -92.55421 35125 ft 585 kts 54°
2026-05-01 14:15 34.63856 -92.47141 35132 ft 586 kts 54°
2026-05-01 14:16 34.68326 -92.38856 35137 ft 586 kts 54°
2026-05-01 14:16 34.72793 -92.30556 35161 ft 587 kts 54°
2026-05-01 14:17 34.77249 -92.22238 35128 ft 587 kts 54°
2026-05-01 14:17 34.81871 -92.14060 35119 ft 584 kts 45°
2026-05-01 14:18 34.87236 -92.06666 35139 ft 582 kts 43°
2026-05-01 14:18 34.91713 -92.00530 35143 ft 583 kts 43°
2026-05-01 14:19 34.98001 -91.91861 35204 ft 583 kts 43°
2026-05-01 14:19 35.03339 -91.84461 35142 ft 584 kts 43°
2026-05-01 14:20 35.11407 -91.73273 35145 ft 585 kts 43°
2026-05-01 14:21 35.16788 -91.65811 35152 ft 585 kts 43°
2026-05-01 14:21 35.22171 -91.58327 35156 ft 586 kts 43°
2026-05-01 14:22 35.29325 -91.48333 35151 ft 585 kts 42°
2026-05-01 14:22 35.34689 -91.40825 35159 ft 586 kts 42°
2026-05-01 14:23 35.40056 -91.33292 35169 ft 586 kts 42°
2026-05-01 14:23 35.45420 -91.25758 35175 ft 586 kts 42°
2026-05-01 14:24 35.50781 -91.18214 35218 ft 587 kts 42°
2026-05-01 14:24 35.56134 -91.10650 35164 ft 586 kts 42°
2026-05-01 14:25 35.61486 -91.03072 35160 ft 586 kts 42°
2026-05-01 14:25 35.66822 -90.95490 35164 ft 587 kts 42°
2026-05-01 14:26 35.74839 -90.84085 35155 ft 587 kts 42°
2026-05-01 14:27 35.80192 -90.76464 35139 ft 588 kts 42°
2026-05-01 14:27 35.85544 -90.68817 35141 ft 588 kts 42°
2026-05-01 14:28 35.93557 -90.57318 35142 ft 588 kts 42°
2026-05-01 14:28 35.98889 -90.49658 35145 ft 588 kts 42°
2026-05-01 14:29 36.04183 -90.42030 35142 ft 588 kts 42°
2026-05-01 14:30 36.14820 -90.26657 35157 ft 587 kts 41°
2026-05-01 14:31 36.22765 -90.15124 35160 ft 586 kts 42°
2026-05-01 14:31 36.28065 -90.07434 35151 ft 586 kts 41°
2026-05-01 14:32 36.33518 -89.99939 35124 ft 583 kts 38°
2026-05-01 14:32 36.39067 -89.92587 35132 ft 583 kts 38°
2026-05-01 14:33 36.44588 -89.85184 35135 ft 584 kts 39°
2026-05-01 14:33 36.50057 -89.77697 35135 ft 584 kts 39°
2026-05-01 14:34 36.55499 -89.70193 35118 ft 584 kts 39°
2026-05-01 14:34 36.60947 -89.62696 35120 ft 584 kts 39°
2026-05-01 14:35 36.66421 -89.55190 35121 ft 585 kts 39°
2026-05-01 14:35 36.71896 -89.47653 35126 ft 586 kts 39°
2026-05-01 14:36 36.77353 -89.40111 35168 ft 586 kts 39°
2026-05-01 14:36 36.82809 -89.32553 35153 ft 586 kts 39°
2026-05-01 14:37 36.88272 -89.24962 35150 ft 586 kts 39°
2026-05-01 14:37 36.93683 -89.17405 35158 ft 586 kts 39°
2026-05-01 14:38 36.99129 -89.09801 35204 ft 586 kts 39°
2026-05-01 14:38 37.04552 -89.02227 35107 ft 583 kts 39°
2026-05-01 14:39 37.09966 -88.94660 35107 ft 583 kts 39°
2026-05-01 14:39 37.15385 -88.87055 35109 ft 583 kts 39°
2026-05-01 14:40 37.20785 -88.79445 35128 ft 583 kts 39°
2026-05-01 14:40 37.26175 -88.71827 35159 ft 583 kts 39°
2026-05-01 14:41 37.31526 -88.64260 35143 ft 582 kts 39°
2026-05-01 14:41 37.36902 -88.56653 35138 ft 581 kts 39°
2026-05-01 14:42 37.42267 -88.49043 35134 ft 581 kts 39°
2026-05-01 14:42 37.47616 -88.41405 35169 ft 580 kts 39°
2026-05-01 14:43 37.52911 -88.33820 35098 ft 573 kts 38°
2026-05-01 14:43 37.58182 -88.26270 35093 ft 573 kts 38°
2026-05-01 14:44 37.63423 -88.18760 35103 ft 573 kts 38°
2026-05-01 14:44 37.71333 -88.07399 35158 ft 573 kts 38°
2026-05-01 14:45 37.79163 -87.96077 35100 ft 568 kts 38°
2026-05-01 14:46 37.84368 -87.88546 35100 ft 569 kts 38°
2026-05-01 14:46 37.92173 -87.77213 35106 ft 569 kts 38°
2026-05-01 14:47 37.97342 -87.69601 35136 ft 569 kts 39°
2026-05-01 14:48 38.04988 -87.58125 35104 ft 566 kts 39°
2026-05-01 14:48 38.12589 -87.46694 35096 ft 566 kts 39°
2026-05-01 14:49 38.22743 -87.31446 35105 ft 562 kts 39°
2026-05-01 14:50 38.32817 -87.16202 35093 ft 561 kts 39°
2026-05-01 14:51 38.40352 -87.04769 35088 ft 561 kts 39°
2026-05-01 14:52 38.47868 -86.93308 35081 ft 561 kts 40°
2026-05-01 14:53 38.55373 -86.81813 35081 ft 560 kts 39°
2026-05-01 14:53 38.60335 -86.74207 35080 ft 560 kts 39°
2026-05-01 14:54 38.65302 -86.66565 35039 ft 555 kts 39°
2026-05-01 14:54 38.70225 -86.58978 35029 ft 554 kts 40°
2026-05-01 14:55 38.74353 -86.52612 35051 ft 554 kts 40°
2026-05-01 14:55 38.79282 -86.44987 35066 ft 554 kts 40°
2026-05-01 14:56 38.84167 -86.37397 35106 ft 554 kts 41°
2026-05-01 14:56 38.89042 -86.29806 35045 ft 549 kts 41°
2026-05-01 14:57 38.93899 -86.22228 35029 ft 549 kts 41°
2026-05-01 14:57 39.01178 -86.10866 35029 ft 549 kts 41°
2026-05-01 14:58 39.06035 -86.03244 35113 ft 550 kts 41°
2026-05-01 14:58 39.08444 -85.99445 35006 ft 544 kts 41°
2026-05-01 14:58 39.10831 -85.95669 35004 ft 540 kts 41°
2026-05-01 14:59 39.15580 -85.88175 35013 ft 540 kts 41°
2026-05-01 14:59 39.20354 -85.80663 35030 ft 541 kts 41°
2026-05-01 15:00 39.27498 -85.69355 35064 ft 542 kts 41°
2026-05-01 15:01 39.32260 -85.61781 35045 ft 543 kts 41°
2026-05-01 15:01 39.36977 -85.54248 35027 ft 543 kts 41°
2026-05-01 15:02 39.41730 -85.46653 35022 ft 543 kts 41°
2026-05-01 15:02 39.46486 -85.39044 35015 ft 543 kts 41°
2026-05-01 15:03 39.51223 -85.31443 35001 ft 542 kts 41°
2026-05-01 15:03 39.55951 -85.23836 34994 ft 542 kts 41°
2026-05-01 15:04 39.60688 -85.16221 35001 ft 543 kts 41°
2026-05-01 15:04 39.65427 -85.08567 34994 ft 544 kts 41°
2026-05-01 15:05 39.70163 -85.00887 35045 ft 544 kts 41°
2026-05-01 15:05 39.74888 -84.93200 35001 ft 543 kts 41°
2026-05-01 15:06 39.79612 -84.85498 35001 ft 544 kts 41°
2026-05-01 15:06 39.84293 -84.77839 35004 ft 544 kts 41°
2026-05-01 15:07 39.89015 -84.70118 35005 ft 545 kts 41°
2026-05-01 15:07 39.93738 -84.62394 35032 ft 545 kts 42°
2026-05-01 15:08 39.98450 -84.54666 35021 ft 544 kts 42°
2026-05-01 15:08 40.03145 -84.46908 35010 ft 544 kts 42°
2026-05-01 15:09 40.07832 -84.39155 35011 ft 544 kts 42°
2026-05-01 15:09 40.12522 -84.31393 35035 ft 543 kts 43°
2026-05-01 15:10 40.17169 -84.23667 34958 ft 538 kts 43°
2026-05-01 15:10 40.24114 -84.12119 34960 ft 539 kts 43°
2026-05-01 15:11 40.31034 -84.00482 34960 ft 540 kts 44°
2026-05-01 15:12 40.35528 -83.92582 34966 ft 538 kts 46°
2026-05-01 15:12 40.42157 -83.80682 34987 ft 537 kts 46°
2026-05-01 15:14 40.53243 -83.61021 34988 ft 536 kts 46°
2026-05-01 15:14 40.59902 -83.49106 34994 ft 537 kts 46°
2026-05-01 15:15 40.68735 -83.33238 34978 ft 537 kts 46°
2026-05-01 15:16 40.77775 -83.17668 34976 ft 531 kts 44°
2026-05-01 15:18 40.89127 -82.98434 35000 ft 531 kts 45°
2026-05-01 15:19 40.98101 -82.82961 35014 ft 530 kts 46°
2026-05-01 15:19 41.04843 -82.71361 35005 ft 529 kts 46°
2026-05-01 15:20 41.11552 -82.59737 35057 ft 528 kts 46°
2026-05-01 15:21 41.15601 -82.51606 34971 ft 530 kts 57°
2026-05-01 15:21 41.19082 -82.42974 34978 ft 530 kts 57°
2026-05-01 15:22 41.24305 -82.30041 34987 ft 532 kts 57°
2026-05-01 15:22 41.27802 -82.21357 34991 ft 533 kts 57°
2026-05-01 15:23 41.31294 -82.12655 35023 ft 533 kts 57°
2026-05-01 15:23 41.34026 -82.03458 35017 ft 539 kts 76°
2026-05-01 15:24 41.34852 -81.93533 34988 ft 539 kts 86°
2026-05-01 15:24 41.35304 -81.83551 34985 ft 540 kts 86°
2026-05-01 15:25 41.35773 -81.73631 34991 ft 540 kts 86°
2026-05-01 15:25 41.36245 -81.63656 34987 ft 540 kts 86°
2026-05-01 15:26 41.36697 -81.53665 34993 ft 540 kts 86°
2026-05-01 15:26 41.37128 -81.43687 34999 ft 540 kts 86°
2026-05-01 15:27 41.37546 -81.33697 35001 ft 539 kts 86°
2026-05-01 15:28 41.38099 -81.20418 34995 ft 539 kts 86°
2026-05-01 15:28 41.38511 -81.10445 34998 ft 540 kts 86°
2026-05-01 15:29 41.39107 -80.95461 34999 ft 539 kts 86°
2026-05-01 15:30 41.39889 -80.75488 35002 ft 539 kts 87°
2026-05-01 15:31 41.40969 -80.45579 35008 ft 537 kts 87°
2026-05-01 15:32 41.41641 -80.25707 35008 ft 536 kts 87°
2026-05-01 15:34 41.40652 -79.96113 35011 ft 534 kts 99°